This demonstration page uses our WeatherBlox Daily Observations layout. Learn more.

Left ArrowRight Arrow

39.51506, -84.39828

Hourly Observations for June 14, 2019

Temp ( °F °C ) Dew Point ( °F °C ) Humidity (%) Winds ( mph kmh ) Pressure ( in mb ) Visibility ( mi km ) Precip ( " mm )
12:15 am 00:15 Clear 52 11 45 7.4 79 79 W 8 13 30.08 1019 10 16 N/A
12:35 am 00:35 Clear 49 9.5 46 7.5 87 87 W 7 11 30.08 1019 10 16 N/A
12:55 am 00:55 Clear 49 9.3 46 7.5 89 89 WSW 7 11 30.09 1019 10 16 N/A
1:15 am 01:15 Clear 49 9.5 46 7.8 89 89 WSW 5 7 30.08 1019 10 16 N/A
1:35 am 01:35 Clear 49 9.6 46 7.9 89 89 WSW 5 7 30.09 1019 10 16 N/A
1:55 am 01:55 Clear 48 9.1 46 7.8 92 92 WSW 6 9 30.09 1019 10 16 N/A
2:15 am 02:15 Clear 49 9.3 46 7.9 91 91 SW 3 6 30.09 1019 10 16 N/A
2:35 am 02:35 Clear 49 9.2 46 7.8 91 91 SW 5 7 30.09 1019 10 16 N/A
2:55 am 02:55 Clear 48 8.9 46 7.6 92 92 SW 5 7 30.09 1019 10 16 N/A
3:15 am 03:15 Clear 48 9 46 7.7 92 92 SSW 3 6 30.10 1019 10 16 N/A
3:35 am 03:35 Clear 48 9.1 46 7.9 92 92 S 3 6 30.10 1019 10 16 N/A
3:55 am 03:55 Clear 49 9.2 46 7.9 92 92 SSW 3 6 30.10 1019 10 16 N/A
4:15 am 04:15 Clear 48 9 46 7.8 92 92 S 3 6 30.10 1019 10 16 N/A
4:35 am 04:35 Clear 48 9 46 7.8 92 92 SSW 5 7 30.12 1020 10 16 N/A
4:55 am 04:55 Clear 48 8.9 46 7.8 93 93 SSW 5 7 30.12 1020 10 16 N/A
5:15 am 05:15 Clear 48 8.8 46 7.8 94 94 SSW 6 9 30.13 1020 10 16 N/A
5:35 am 05:35 Clear 47 8.3 46 7.5 95 95 SSW 6 9 30.13 1020 10 16 N/A
5:55 am 05:55 Clear 47 8.2 46 7.6 96 96 SW 7 11 30.15 1021 10 16 N/A
6:15 am 06:15 Sunny 47 8.4 46 7.8 96 96 SSW 3 6 30.15 1021 10 16 N/A
6:35 am 06:35 Sunny 47 8.3 46 7.8 97 97 SSW 3 6 30.16 1021 10 16 N/A
6:55 am 06:55 Sunny 48 8.9 47 8.3 96 96 SW 6 9 30.17 1022 10 16 N/A
7:15 am 07:15 Sunny 50 10 48 9 94 94 SW 6 9 30.17 1022 10 16 N/A
7:35 am 07:35 Sunny 52 11 49 9.4 90 90 SW 7 11 30.18 1022 10 16 N/A
7:55 am 07:55 Sunny 53 11.9 49 9.6 86 86 SW 6 9 30.17 1022 10 16 N/A
8:15 am 08:15 Sunny 55 12.8 49 9.7 82 82 SW 5 7 30.17 1022 10 16 N/A
8:35 am 08:35 Sunny 57 13.8 51 10.4 80 80 SW 7 11 30.19 1022 10 16 N/A
8:55 am 08:55 Sunny 59 14.9 50 10.1 73 73 SW 8 13 30.19 1022 10 16 N/A
9:15 am 09:15 Sunny 61 16 50 10 68 68 SSW 7 11 30.18 1022 10 16 N/A
9:35 am 09:35 Sunny 62 16.7 50 10.2 66 66 SW 7 11 30.18 1022 10 16 N/A
9:55 am 09:55 Sunny 64 17.7 49 9.6 59 59 W 10 17 30.18 1022 10 16 N/A
10:15 am 10:15 Sunny 65 18.5 49 9.2 55 55 W 12 19 30.18 1022 10 16 N/A
10:35 am 10:35 Sunny 66 19 50 9.9 56 56 SW 10 17 30.18 1022 10 16 N/A
10:55 am 10:55 Sunny 67 19.6 49 9.7 53 53 WSW 12 19 30.18 1022 10 16 N/A
11:15 am 11:15 Sunny 68 20 49 9.3 50 50 WSW 9 15 30.16 1021 10 16 N/A
11:35 am 11:35 Sunny 69 20.5 47 8.5 46 46 W 12 19 30.16 1021 10 16 N/A
11:55 am 11:55 Sunny 70 20.9 48 9.1 47 47 SW 14 22 30.16 1021 10 16 N/A
12:15 pm 12:15 Sunny 70 21.2 48 8.8 45 45 WSW 6 9 30.15 1021 10 16 N/A
12:35 pm 12:35 Sunny 71 21.4 48 9.1 46 46 SW 7 11 30.15 1021 10 16 N/A
12:55 pm 12:55 Sunny 71 21.8 49 9.3 45 45 SW 10 17 30.15 1021 10 16 N/A
1:15 pm 13:15 Sunny 71 21.8 48 8.9 44 44 SW 12 19 30.14 1021 10 16 N/A
1:35 pm 13:35 Sunny 72 22.4 47 8.6 41 41 SW 15 24 30.13 1020 10 16 N/A
1:55 pm 13:55 Sunny 72 22.4 44 6.9 37 37 SW 9 15 30.12 1020 10 16 N/A
2:15 pm 14:15 Sunny 73 22.8 46 7.5 37 37 WSW 13 20 30.11 1020 10 16 N/A
2:35 pm 14:35 Sunny 74 23.1 45 7 36 36 SW 14 22 30.10 1019 10 16 N/A
2:55 pm 14:55 Sunny 75 23.7 46 7.5 35 35 SW 12 19 30.09 1019 10 16 N/A
3:15 pm 15:15 Sunny 75 23.7 44 6.7 34 34 SW 14 22 30.08 1018 10 16 N/A
3:35 pm 15:35 Sunny 74 23.4 44 6.8 34 34 WSW 13 20 30.08 1019 10 16 N/A
3:55 pm 15:55 Sunny 74 23.5 48 8.8 39 39 WSW 13 20 30.07 1018 10 16 N/A
4:15 pm 16:15 Sunny 74 23.1 46 7.5 37 37 WSW 13 20 30.06 1018 10 16 N/A
4:35 pm 16:35 Sunny 75 23.9 47 8.4 37 37 SW 10 17 30.06 1018 10 16 N/A
4:55 pm 16:55 Sunny 75 24.1 45 7 33 33 WSW 12 19 30.05 1017 10 16 N/A
5:15 pm 17:15 Sunny 75 23.7 47 8.1 37 37 SSW 13 20 30.04 1017 10 16 N/A
5:35 pm 17:35 Sunny 75 23.7 46 7.5 35 35 SW 15 24 30.04 1017 10 16 N/A
5:55 pm 17:55 Sunny 76 24.2 47 8.1 36 36 SW 13 20 30.02 1017 10 16 N/A
6:15 pm 18:15 Sunny 74 23.5 46 8 37 37 SW 14 22 30.03 1017 10 16 N/A
6:35 pm 18:35 Sunny 73 22.6 47 8.1 40 40 SW 10 17 30.03 1017 10 16 N/A
6:55 pm 18:55 Sunny 72 22.1 47 8.3 41 41 SW 12 19 30.03 1017 10 16 N/A
7:15 pm 19:15 Sunny 71 21.9 47 8.5 42 42 SW 14 22 30.03 1017 10 16 N/A
7:35 pm 19:35 Sunny 71 21.7 47 8.4 43 43 SW 9 15 30.03 1017 10 16 N/A
7:55 pm 19:55 Sunny 71 21.4 47 8.4 43 43 SW 9 15 30.03 1017 10 16 N/A
8:15 pm 20:15 Sunny 70 20.9 46 8 44 44 SW 9 15 30.03 1017 10 16 N/A
8:35 pm 20:35 Sunny 69 20.3 47 8.5 47 47 SW 8 13 30.03 1017 10 16 N/A
8:55 pm 20:55 Sunny 68 20.1 48 8.8 48 48 SSW 6 9 30.02 1017 10 16 N/A
9:15 pm 21:15 Clear 69 20.5 48 9 48 48 SSW 7 11 30.02 1017 10 16 N/A
9:35 pm 21:35 Clear 68 20.2 49 9.5 50 50 SSW 8 13 30.02 1017 10 16 N/A
9:55 pm 21:55 Clear 68 20 49 9.5 51 51 SSW 8 13 30.02 1017 10 16 N/A
10:15 pm 22:15 Clear 67 19.7 50 9.8 53 53 SSW 6 9 30.03 1017 10 16 N/A
10:35 pm 22:35 Clear 67 19.6 50 9.9 54 54 SSW 5 7 30.03 1017 10 16 N/A
10:55 pm 22:55 Clear 67 19.5 50 9.9 54 54 SSW 7 11 30.03 1017 10 16 N/A
11:15 pm 23:15 Clear 67 19.6 50 10 54 54 SSW 7 11 30.03 1017 10 16 N/A
11:35 pm 23:35 Mostly Cloudy 67 19.6 50 10 54 54 SSW 8 13 30.02 1016 10 16 N/A
11:55 pm 23:55 Clear 67 19.3 51 10.3 56 56 SSW 7 11 30.01 1016 10 16 N/A

Powered by AerisWeather